Find Starlink 4553

NORAD ID: 53577 Int'l Des: 2022-101 Owner: SPXS Country: US Constellation: starlink operational
LEOCIRCULAR

当前视图

正在加载3D地球...

About Starlink 4553

Starlink 4553 (NORAD 53577) is a starlink constellation satellite (v1.5) launched Aug 19, 2022 by SPXS of US. It operates in LEO, CIRCULAR orbit with a mass of 300.00 kg.

关于 Starlink 4553

正在加载描述...

即将过境

Passes for default location (London). Set your location on the main map for personalized predictions.

高度历史

Loading altitude history...

两行轨道根数

1 53577U 22101BC 26175.25002315 .00076864 00000-0 38731-2 0 9997
2 53577 53.1604 295.1343 0001412 61.3532 129.7095 15.16500134 5805
Epoch: Jun 24, 2026 • Age: 8 hours

当前状态

高度 516.6 km
速度 7.61 km/s
星下点 15.02°N, 17.26°W
发射日期 Aug 19, 2022
运行时间 3.8 years
类型 internet

技术详情

分类 Payload
质量 300.00 kg
干质量 290.00 kg
总质量 300.00 kg
长度 0.20 m
直径 2.80 m
跨度 9.00 m
形状 Box + pan
制造商 SPXS
平台类型 Starlink
阶段状态 In Orbit
所有者/国家 SPXS/US

Most Searched